[[[{"header":{"parameterUnit":"kt","parameterCategory":2,"dx":1,"dy":1,"la1":30.253999710083008,"la2":30.299108505249023,"lo1":-89.0895004272461,"lo2":-89.04439544677734,"nx":28,"ny":28,"refTime":"2022-10-12T21:00:00:Z","depth":0,"parameterNumber":1,"parameterNumberName":"U-component_of_WINDS"},"data":[-0.9812,-0.9858,-0.9908,-0.9984,-1.0043,-1.0104,-1.0143,-1.0198,-1.0256,-1.0336,-1.0391,-1.0449,-1.0529,-1.0609,-1.0673,-1.0698,-1.0721,-1.0698,-1.0731,-1.0785,-1.0796,-1.0806,-1.0797,-1.0703,-1.0702,-1.0667,-1.0667,-1.0667,-0.9842,-0.99,-0.9956,-1.0044,-1.0093,-1.0145,-1.022,-1.0257,-1.0312,-1.0384,-1.0442,-1.0518,-1.0585,-1.0676,-1.075,-1.0773,-1.0803,-1.0789,-1.0788,-1.0799,-1.0859,-1.0849,-1.0764,-1.0764,-1.0764,-1.0764,-1.0764,-1.0764,-0.9911,-0.9936,-1.002,-1.0082,-1.0141,-1.0201,-1.0235,-1.0306,-1.0362,-1.0445,-1.0498,-1.0562,-1.0646,-1.0763,-1.0816,-1.0868,-1.0893,-1.0895,-1.0896,-1.0894,-1.0884,-1.0923,-1.0883,-1.0884,-1.0884,-1.0885,-1.0885,0,-0.9977,-1.0018,-1.0076,-1.0148,-1.0197,-1.0259,-1.0326,-1.0349,-1.0458,-1.05,-1.0567,-1.0614,-1.0709,-1.0778,-1.0861,-1.0918,-1.0978,-1.0992,-1.0993,-1.0966,-1.093,-1.0948,-1.104,-1.0992,-1.0993,-1.0994,-1.0995,-1.0995,-1.0049,-1.0074,-1.0188,-1.0222,-1.0271,-1.0325,-1.0368,-1.0463,-1.0504,-1.0601,-1.0621,-1.0692,-1.0754,-1.0854,-1.094,-1.1012,-1.1042,-1.1017,-1.1053,-1.1026,-1.1039,-1.1036,-1.1038,-1.1008,-1.1006,-1.1005,-1.1004,0,-1.0084,-1.017,-1.0226,-1.0339,-1.0368,-1.039,-1.0487,-1.0518,-1.0586,-1.0638,-1.0656,-1.0762,-1.0827,-1.0918,-1.1013,-1.1058,-1.1095,-1.1124,-1.1066,-1.1076,-1.1061,-1.106,-1.1004,-1.1,-1.1102,-1.1101,-1.11,0,-1.0179,-1.0209,-1.0336,-1.0364,-1.0401,-1.0496,-1.0529,-1.0591,-1.0666,-1.0708,-1.0792,-1.083,-1.0942,-1.0994,-1.1062,-1.1109,-1.1128,-1.1165,-1.1182,-1.1156,-1.1151,-1.118,-1.1183,-1.1223,-1.1223,-1.1224,-1.1224,0,-1.0223,-1.0328,-1.0375,-1.0413,-1.0538,-1.0558,-1.0611,-1.0696,-1.0739,-1.0809,-1.0837,-1.0913,-1.0954,-1.1011,-1.1096,-1.1117,-1.1158,-1.1204,-1.1196,-1.1193,-1.1199,-1.1197,-1.1125,-1.1224,-1.1224,-1.1224,-1.1224,0,-1.0313,-1.0381,-1.0436,-1.0541,-1.0565,-1.0597,-1.0677,-1.0725,-1.081,-1.0854,-1.0911,-1.0978,-1.1029,-1.1067,-1.1138,-1.114,-1.1176,-1.1218,-1.1219,-1.1228,-1.1268,-1.1213,-1.1136,-1.1131,-1.1237,-1.1237,-1.1237,0,-1.034,-1.042,-1.0502,-1.0553,-1.0603,-1.0693,-1.0731,-1.0803,-1.0866,-1.0918,-1.0989,-1.1048,-1.1097,-1.1129,-1.1152,-1.1227,-1.1224,-1.123,-1.1304,-1.1306,-1.1276,-1.1207,-1.1172,-1.1143,-1.124,-1.1239,-1.1239,0,-1.0371,-1.0523,-1.0526,-1.0574,-1.0685,-1.0728,-1.0771,-1.0851,-1.0881,-1.0955,-1.0993,-1.1081,-1.1121,-1.1173,-1.1237,-1.1256,-1.1229,-1.1297,-1.13,-1.1279,-1.125,-1.1215,-1.121,-1.1268,-1.1267,-1.1267,-1.1241,0,-1.0485,-1.0537,-1.0551,-1.0654,-1.0702,-1.074,-1.0837,-1.0875,-1.093,-1.0996,-1.1056,-1.1143,-1.1226,-1.1246,-1.1301,-1.1317,-1.1328,-1.1371,-1.1415,-1.137,-1.1363,-1.1361,-1.1416,-1.1418,-1.142,-1.1421,0,0,-1.0488,-1.0565,-1.0656,-1.0701,-1.0747,-1.0841,-1.0873,-1.0929,-1.1041,-1.107,-1.1096,-1.1231,-1.1301,-1.1364,-1.1357,-1.1392,-1.1403,-1.1416,-1.1391,-1.1387,-1.1384,-1.1376,-1.1372,-1.1424,-1.1424,-1.1425,-1.1425,0,-1.0549,-1.0616,-1.0646,-1.0708,-1.0803,-1.0871,-1.0878,-1.099,-1.1034,-1.1094,-1.1172,-1.122,-1.1327,-1.139,-1.1435,-1.1411,-1.1467,-1.1429,-1.1382,-1.1404,-1.1398,-1.1393,-1.1383,-1.1378,-1.1429,-1.1429,-1.1429,0,-1.0597,-1.0678,-1.0703,-1.0812,-1.0876,-1.0926,-1.0996,-1.1046,-1.1085,-1.1188,-1.1246,-1.1308,-1.1401,-1.1448,-1.1474,-1.1498,-1.1519,-1.1532,-1.1524,-1.1529,-1.1555,-1.1548,-1.1541,-1.1626,-1.1626,-1.1626,0,0,-1.0637,-1.0686,-1.0804,-1.0833,-1.0867,-1.097,-1.1007,-1.1067,-1.1148,-1.1179,-1.126,-1.1336,-1.14,-1.1439,-1.1504,-1.1543,-1.157,-1.1552,-1.1542,-1.1534,-1.1534,-1.1558,-1.1551,-1.1627,-1.1627,-1.1627,0,0,-1.0657,-1.0793,-1.0835,-1.088,-1.0953,-1.1073,-1.1087,-1.1142,-1.121,-1.1216,-1.1321,-1.1347,-1.1393,-1.1451,-1.1453,-1.1522,-1.1564,-1.1566,-1.1482,-1.1472,-1.1463,-1.1447,-1.1538,0,0,0,0,0,-1.0769,-1.0776,-1.0813,-1.0835,-1.0975,-1.1052,-1.1071,-1.1157,-1.1184,-1.1193,-1.1269,-1.1328,-1.1473,-1.1477,-1.1499,-1.1496,-1.164,-1.1638,-1.1636,-1.1537,-1.1526,-1.1516,0,0,0,0,0,0,-1.0779,-1.0805,-1.0813,-1.093,-1.0963,-1.1053,-1.1118,-1.1141,-1.1185,-1.1195,-1.1311,-1.1331,-1.1407,-1.1473,-1.149,-1.1486,-1.1532,-1.1639,-1.1637,-1.1635,-1.1533,-1.1524,-1.1515,0,0,0,0,0,-1.0786,-1.0808,-1.101,-1.0931,-1.0959,-1.1075,-1.1118,-1.1138,-1.1174,-1.1292,-1.1314,-1.1235,-1.1405,-1.1426,-1.1484,-1.1475,-1.152,-1.1527,-1.1638,-1.1636,-1.1635,-1.1529,0,0,0,0,0,0,-1.0792,-1.0828,-1.1017,-1.1029,-1.0935,-1.1072,-1.1096,-1.1135,-1.127,-1.1292,-1.122,-1.1227,-1.1403,-1.142,-1.1436,-1.1467,-1.1511,-1.1517,-1.1521,-1.1637,-1.1636,-1.1634,0,0,0,0,0,0,-1.0817,-1.0837,-1.1024,-1.1023,-1.1036,-1.1068,-1.109,-1.1152,-1.127,-1.1191,-1.1201,-1.1222,-1.138,-1.1415,-1.1428,-1.1522,-1.1503,-1.1509,-1.1514,-1.1516,-1.1636,-1.1635,0,0,0,0,0,0,-1.0827,-1.0845,-1.1021,-1.103,-1.1042,-1.1181,-1.1126,-1.1265,-1.1268,-1.1184,-1.1271,-1.1272,-1.1374,-1.1389,-1.1423,-1.1511,-1.1519,-1.1503,-1.1508,-1.1511,-1.1513,0,0,0,0,0,0,0,-1.0835,-1.0698,-1.0947,-1.1036,-1.1046,-1.1139,-1.1142,-1.1145,-1.1268,-1.1269,-1.127,-1.1272,-1.1468,-1.1475,-1.1482,-1.1501,0,0,-1.1503,-1.1506,0,0,0,0,0,0,0,0,-1.0692,-1.0696,-1.0947,-1.095,-1.0952,-1.1139,-1.1142,-1.1144,-1.1268,-1.1269,-1.127,-1.1271,-1.147,-1.1475,-1.1481,0,0,0,0,0,0,0,0,0,0,0,0,0,0,0,-1.0948,-1.095,0,-1.1139,-1.1142,-1.1144,-1.1268,-1.1269,-1.127,-1.1271,-1.1471,-1.1476,-1.1481,0,0,0,0,0,0,0,0,0,0,0,0,0,0,0,0,0,0,0,0,0,0,0,0,0,0,0,0,0,0,0,0,0,0,0,0,0,0,0,0,0,0,0,0,0,0,0,0,0,0,0,0,0,0,0,0,0,0,0,0,0,0,0,0,0,0,0,0,0]}],[{"header":{"parameterUnit":"kt","parameterCategory":2,"dx":1,"dy":1,"la1":30.253999710083008,"la2":30.299108505249023,"lo1":-89.0895004272461,"lo2":-89.04439544677734,"nx":28,"ny":28,"refTime":"2022-10-12T21:00:00:Z","depth":0,"parameterNumber":2,"parameterNumberName":"V-component_of_WINDS"},"data":[3.6213,3.6298,3.6334,3.6449,3.6501,3.6587,3.663,3.669,3.6748,3.6858,3.6928,3.6975,3.705,3.7146,3.7226,3.7247,3.728,3.7284,3.7308,3.7252,3.7248,3.7243,3.7225,3.7289,3.7289,3.7362,3.7362,3.7363,3.6172,3.6223,3.6293,3.6387,3.6449,3.6466,3.6543,3.6595,3.6673,3.6744,3.6814,3.6915,3.7,3.7075,3.7165,3.721,3.7226,3.7232,3.7232,3.7244,3.7185,3.7166,3.7218,3.7218,3.7218,3.7218,3.7218,3.7218,3.6108,3.6157,3.6234,3.6311,3.6368,3.6431,3.6485,3.6541,3.6612,3.6707,3.6738,3.6827,3.6908,3.7034,3.7087,3.716,3.7161,3.7181,3.7187,3.7192,3.7193,3.7091,3.7177,3.7177,3.7177,3.7177,3.7177,0,3.6073,3.61,3.6169,3.625,3.6308,3.6375,3.6443,3.6478,3.6549,3.6606,3.6691,3.6747,3.6859,3.6947,3.7039,3.709,3.7119,3.7125,3.714,3.7128,3.7106,3.7124,3.703,3.7123,3.7123,3.7122,3.7122,3.7122,3.6015,3.6066,3.6164,3.6208,3.6254,3.6324,3.6375,3.6433,3.6485,3.6579,3.6621,3.6708,3.678,3.6914,3.6982,3.7067,3.7083,3.7115,3.7096,3.7083,3.7089,3.7087,3.7095,3.7119,3.7119,3.712,3.712,0,3.5979,3.6037,3.6129,3.6221,3.6246,3.6299,3.638,3.6432,3.6481,3.6561,3.6583,3.6662,3.6746,3.6809,3.6918,3.695,3.7045,3.7055,3.7018,3.7025,3.7063,3.7061,3.7169,3.7188,3.7117,3.7118,3.7118,0,3.5954,3.602,3.6104,3.6154,3.623,3.6287,3.6362,3.6411,3.6479,3.6543,3.6583,3.6642,3.6714,3.6783,3.6829,3.6917,3.6937,3.6968,3.698,3.6966,3.6963,3.6999,3.6998,3.7,3.6999,3.6998,3.6998,0,3.5895,3.6016,3.6098,3.6135,3.6241,3.6279,3.6325,3.6401,3.645,3.6524,3.6558,3.664,3.6686,3.6751,3.6809,3.6795,3.6917,3.6909,3.6949,3.6948,3.6976,3.6974,3.705,3.6997,3.6997,3.6997,3.6997,0,3.5886,3.5955,3.6064,3.6153,3.6183,3.6237,3.6321,3.6382,3.646,3.6491,3.655,3.6586,3.6664,3.6653,3.6764,3.6729,3.6773,3.6809,3.6813,3.6827,3.6813,3.6853,3.6915,3.6927,3.6836,3.6835,3.6834,0,3.5804,3.5928,3.5977,3.608,3.6146,3.6187,3.6249,3.6315,3.6363,3.6428,3.6481,3.6556,3.656,3.6593,3.6638,3.6698,3.6743,3.6693,3.6794,3.6797,3.6775,3.6833,3.6828,3.6893,3.6817,3.6819,3.682,0,3.5749,3.5874,3.5888,3.5935,3.603,3.6086,3.6155,3.6241,3.6282,3.6351,3.6414,3.6518,3.6528,3.658,3.6618,3.6663,3.6714,3.6666,3.667,3.6676,3.6813,3.6809,3.6819,3.673,3.6732,3.6734,3.6807,0,3.5727,3.5796,3.5836,3.5934,3.5986,3.6052,3.6117,3.6164,3.6194,3.6243,3.6334,3.6406,3.6495,3.6522,3.6552,3.6633,3.6631,3.6639,3.6635,3.667,3.6696,3.6707,3.659,3.6591,3.6591,3.6591,0,0,3.5637,3.5737,3.5788,3.5857,3.5904,3.5946,3.6011,3.6063,3.6166,3.62,3.6197,3.6355,3.6414,3.6519,3.6535,3.6569,3.6592,3.6576,3.6652,3.6658,3.6664,3.6691,3.6701,3.6591,3.6592,3.6592,3.6592,0,3.5643,3.5696,3.5759,3.5814,3.5897,3.5944,3.5959,3.605,3.6084,3.6172,3.6208,3.6271,3.6394,3.6454,3.65,3.6564,3.659,3.6585,3.6599,3.6651,3.6657,3.6663,3.669,3.6699,3.6592,3.6592,3.6592,0,3.5603,3.5668,3.5704,3.5811,3.5866,3.5933,3.5944,3.6013,3.6064,3.6109,3.6196,3.6245,3.6329,3.6418,3.646,3.646,3.6584,3.6555,3.6556,3.6563,3.6617,3.6624,3.663,3.6546,3.6546,3.6545,0,0,3.56,3.5662,3.5751,3.5817,3.5849,3.592,3.5962,3.5997,3.6069,3.6098,3.6161,3.6232,3.6306,3.6352,3.6424,3.6511,3.6536,3.6547,3.6549,3.655,3.6558,3.6613,3.662,3.6544,3.6544,3.6544,0,0,3.5599,3.5704,3.5721,3.5804,3.5871,3.5965,3.6004,3.6028,3.6098,3.6098,3.6162,3.6184,3.6268,3.6315,3.6285,3.6425,3.6419,3.6427,3.6391,3.6395,3.6397,3.6386,3.6308,0,0,0,0,0,3.5638,3.569,3.5705,3.5728,3.5865,3.5956,3.5974,3.6027,3.6022,3.6052,3.6109,3.6132,3.6312,3.6287,3.6311,3.6345,3.6523,3.6526,3.653,3.6504,3.6507,3.651,0,0,0,0,0,0,3.5648,3.5676,3.5704,3.5798,3.5829,3.5954,3.5958,3.5974,3.602,3.6023,3.612,3.6135,3.6183,3.6279,3.63,3.6331,3.6302,3.6524,3.6527,3.653,3.6505,3.6508,3.651,0,0,0,0,0,3.5656,3.5679,3.5883,3.5798,3.5825,3.5907,3.5957,3.597,3.6007,3.6095,3.6111,3.6042,3.6182,3.6204,3.6292,3.632,3.6288,3.6295,3.6526,3.6529,3.6531,3.6507,0,0,0,0,0,0,3.5662,3.5693,3.589,3.59,3.5782,3.5902,3.5922,3.5966,3.6077,3.6093,3.602,3.6021,3.6183,3.6199,3.6215,3.6313,3.6276,3.6284,3.6289,3.6528,3.653,3.6532,0,0,0,0,0,0,3.5681,3.5701,3.5895,3.5872,3.588,3.5896,3.5914,3.5996,3.6078,3.5996,3.6,3.6019,3.6159,3.6196,3.6209,3.6335,3.6268,3.6275,3.628,3.6283,3.653,3.6531,0,0,0,0,0,0,3.569,3.5708,3.587,3.5876,3.5883,3.6003,3.597,3.6107,3.6055,3.5991,3.6052,3.6051,3.6156,3.617,3.6204,3.6325,3.6332,3.6268,3.6273,3.6276,3.6279,0,0,0,0,0,0,0,3.5698,3.5567,3.5828,3.5879,3.5885,3.5996,3.5999,3.6002,3.6055,3.6054,3.6052,3.6051,3.6226,3.6234,3.6242,3.6316,0,0,3.6267,3.6271,0,0,0,0,0,0,0,0,3.5561,3.5566,3.5829,3.5831,3.5833,3.5997,3.5999,3.6001,3.6055,3.6054,3.6053,3.6052,3.6228,3.6235,3.6241,0,0,0,0,0,0,0,0,0,0,0,0,0,0,0,3.5829,3.5831,0,3.5997,3.5999,3.6001,3.6054,3.6054,3.6053,3.6052,3.623,3.6235,3.6241,0,0,0,0,0,0,0,0,0,0,0,0,0,0,0,0,0,0,0,0,0,0,0,0,0,0,0,0,0,0,0,0,0,0,0,0,0,0,0,0,0,0,0,0,0,0,0,0,0,0,0,0,0,0,0,0,0,0,0,0,0,0,0,0,0,0,0,0,0]}]]]